EHI
18 19 19 21 22 20 19 20 19 17 16 13 12 10 8 6 4 2 2 5 6 4 3 2 1 0 0 0 0 0 0 0 0 0 0 0 0 0 0 0 0 0 0
18 19 20 21 21 20 20 20 18 17 14 12 11 9 7 5 4 2 3 5 6 4 3 2 1 0 0 0 0 0 0 0 0 0 0 0 0 0 0 0 0 0 0
16 16 19 21 20 19 18 17 16 14 12 11 10 8 6 5 4 3 2 4 5 4 2 1 0 0 0 0 0 0 0 0 0 0 0 0 0 0 0 0 0 0 0
14 14 16 19 18 16 14 14 13 11 9 8 9 8 6 5 3 1 1 1 2 1 1 0 0 0 0 0 0 0 0 0 0 0 0 0 0 0 0 0 0 0 0
13 14 15 16 16 13 11 11 10 9 7 6 7 7 4 3 2 1 0 0 0 0 0 0 0 0 0 0 0 0 0 0 0 0 0 0 0 0 0 0 0 0 0
11 12 14 14 12 10 9 8 7 6 4 4 5 4 2 1 1 1 0 0 0 0 1 1 0 0 0 0 0 0 0 0 0 0 0 0 0 0 0 0 0 0 0
8 9 11 11 10 10 9 7 5 4 3 3 4 3 1 0 0 0 0 0 0 0 1 2 2 2 1 0 0 0 0 0 0 0 0 0 0 0 0 0 0 0 0
5 7 9 10 10 11 9 6 4 4 3 3 3 3 1 0 0 0 0 0 0 1 2 3 4 5 4 2 1 1 0 0 0 0 0 0 0 0 0 0 0 0 0
4 5 7 9 10 10 9 6 4 5 4 4 3 3 2 1 0 0 0 0 1 2 2 3 5 6 5 4 3 3 1 1 0 0 0 0 0 0 0 0 0 0 0
3 3 4 6 8 8 7 5 5 6 6 5 4 3 4 3 1 1 1 0 1 2 2 3 5 5 4 4 5 4 3 2 1 0 0 0 0 0 0 0 0 0 0
2 2 2 4 5 6 5 5 6 6 6 5 4 4 5 5 4 2 1 0 0 1 2 3 5 5 4 3 4 4 3 3 2 1 1 0 0 0 0 0 0 0 0
1 2 2 3 4 4 4 5 5 5 5 5 5 6 6 6 5 3 1 1 0 1 2 3 3 4 4 3 3 3 3 3 3 3 2 1 1 1 0 0 0 0 0
0 1 3 3 3 3 3 3 3 3 3 3 4 5 6 7 6 4 3 2 1 1 1 1 2 2 3 3 3 3 3 3 3 3 3 3 2 2 1 1 0 0 0
1 1 2 3 2 2 2 2 2 1 2 3 4 5 6 7 6 5 4 3 3 3 3 2 2 2 3 3 3 3 3 3 3 3 3 3 3 3 3 2 1 1 1
2 3 2 1 1 1 1 2 2 2 3 4 5 6 6 6 5 4 4 4 3 4 4 3 3 3 3 3 3 3 3 3 3 3 3 3 3 3 3 3 2 2 2
3 3 2 1 0 0 1 2 3 3 3 4 6 6 6 4 3 3 4 3 3 3 4 3 3 3 3 3 3 3 3 3 3 3 3 3 3 3 3 2 2 2 2
2 2 2 1 0 0 1 1 2 4 4 4 6 6 5 4 3 3 3 3 3 3 4 3 3 3 3 3 2 2 2 3 3 3 3 3 3 3 3 2 1 1 1
1 1 1 0 0 1 2 2 3 4 4 5 6 6 4 3 3 3 3 3 3 4 4 4 4 4 3 3 1 1 2 3 3 3 3 3 3 3 3 3 2 2 1
0 0 0 1 1 3 4 4 5 6 6 6 6 6 4 3 3 3 3 3 3 3 4 5 5 4 4 2 1 1 2 3 3 3 3 3 3 3 3 3 3 3 3
0 0 1 2 3 4 4 4 5 6 6 6 6 6 4 3 3 3 3 3 3 3 3 4 4 3 3 3 1 1 2 3 3 3 3 3 3 3 2 3 3 3 3
0 1 2 3 3 4 4 4 4 4 4 5 5 4 3 3 3 2 3 3 3 2 2 2 2 2 2 3 2 1 2 3 3 3 3 3 3 1 1 1 3 3 3
0 1 3 3 3 4 5 4 3 3 3 4 3 2 1 2 2 2 2 2 1 1 1 1 1 0 1 2 2 1 1 2 3 3 3 3 2 1 0 1 2 2 1
0 2 4 4 3 4 5 5 4 3 3 2 1 0 0 1 1 1 1 1 0 0 0 0 0 0 1 1 1 1 0 1 2 3 3 2 1 0 0 0 1 1 0
1 2 4 4 3 3 4 4 3 3 2 1 0 0 0 0 0 0 0 0 0 0 0 0 0 0 0 0 1 1 1 1 1 1 2 1 0 0 0 0 0 0 0
2 2 3 3 2 2 3 3 3 3 1 0 0 0 0 0 0 0 0 0 0 0 0 0 0 0 0 0 1 2 2 1 0 0 1 1 1 0 0 0 0 0 0
3 3 2 2 1 1 2 3 3 2 1 0 0 0 0 0 0 0 0 0 0 0 0 0 0 0 0 0 0 1 1 1 0 0 1 2 2 1 0 0 0 0 0
Wind_Speed
5 6 6 6 6 5 6 6 6 5 4 3 2 2 1 1 1 1 2 3 3 3 2 2 1 2 2 1 1 1 1 0 1 1 1 2 1 0 1 1 1 2 2
4 5 5 5 4 5 6 6 5 5 4 3 2 2 2 1 1 1 1 2 3 3 3 2 2 2 2 1 1 2 1 0 1 2 1 1 2 2 1 1 1 1 1
8 6 6 5 5 4 5 5 5 5 4 4 2 2 2 2 1 1 0 1 2 3 2 2 2 2 2 2 2 2 3 1 0 1 3 2 2 2 2 1 1 1 1
8 8 7 6 6 5 4 4 4 3 3 3 3 4 3 2 2 1 1 1 1 2 2 2 2 2 1 2 2 2 2 3 1 0 1 2 3 2 1 2 1 2 2
9 8 8 8 7 6 5 4 4 3 3 3 3 3 2 2 1 1 1 1 0 1 1 2 2 2 1 1 1 1 2 2 2 2 1 0 0 2 2 2 2 1 2
7 7 7 7 6 5 5 5 5 3 3 3 3 4 3 3 3 2 1 1 0 0 1 2 1 1 1 1 1 1 2 2 2 1 1 2 2 2 2 2 2 2 2
7 7 7 7 7 6 6 5 5 4 3 3 3 3 3 3 3 3 2 1 1 0 0 1 1 1 1 1 1 1 1 1 1 1 1 1 2 2 2 2 2 2 2
6 7 8 9 8 8 6 6 6 4 4 3 2 2 3 2 2 2 2 2 2 2 1 1 1 1 1 1 1 1 1 1 1 1 1 1 1 1 2 2 2 1 1
6 7 7 7 8 8 7 7 6 5 4 4 3 3 3 3 3 2 2 2 2 2 2 1 1 1 1 1 1 1 0 1 1 1 1 0 1 1 1 1 3 3 1
4 5 6 6 6 6 6 5 5 5 4 4 3 3 2 3 3 3 2 2 2 2 2 2 1 1 0 1 1 1 1 1 1 1 1 0 1 1 0 1 1 2 3
5 5 4 5 5 5 5 5 5 4 3 3 3 2 2 2 2 2 2 2 2 3 3 2 2 1 0 0 1 1 1 1 0 0 1 1 1 0 1 0 1 1 2
5 5 5 5 5 5 5 5 4 4 4 3 3 3 2 2 2 1 1 2 2 2 3 2 1 1 0 0 1 1 0 1 1 1 0 1 1 0 1 0 1 1 2
4 4 5 5 5 5 5 5 4 4 3 3 3 2 2 2 2 2 2 2 2 2 2 2 2 1 1 1 1 1 1 1 1 2 1 1 1 0 0 1 1 1 1
5 5 5 5 5 5 4 4 4 4 3 3 3 3 2 2 2 1 1 1 2 3 3 2 2 2 2 1 1 2 1 1 1 1 1 1 2 2 1 1 1 1 0
4 6 7 6 5 4 4 4 3 3 3 4 3 3 2 2 1 1 1 2 2 3 3 3 2 2 2 2 2 2 1 1 1 1 1 1 1 2 2 1 2 1 1
6 6 7 7 6 6 5 4 3 3 3 4 4 3 3 2 2 2 1 1 1 2 2 2 2 2 2 2 2 2 1 1 1 1 1 1 1 1 1 1 2 3 3
5 6 7 7 6 6 6 5 4 3 3 3 3 3 3 3 2 2 1 1 1 2 2 2 2 3 3 3 3 2 2 1 1 1 1 1 2 1 1 2 2 2 3
6 5 5 5 5 5 4 5 5 5 4 3 3 3 3 3 2 2 2 2 2 2 2 3 3 3 3 4 3 2 1 1 2 2 2 2 2 2 1 1 2 3 3
6 5 5 5 5 5 5 5 5 4 4 4 3 3 3 3 3 3 3 2 2 2 2 2 3 3 4 4 4 3 1 1 2 2 2 3 3 4 2 1 2 4 5
4 4 4 4 5 5 5 5 4 4 4 4 4 4 3 3 3 4 3 2 2 3 3 2 3 4 4 5 5 4 2 1 2 2 2 3 3 4 3 2 2 4 5
3 4 5 4 5 5 6 5 4 4 4 4 3 3 3 4 3 3 2 2 2 2 2 2 2 3 4 4 5 4 2 2 2 2 2 3 4 5 4 4 4 6 5
3 3 4 3 4 5 6 5 4 4 3 3 3 3 3 3 3 2 2 1 2 2 2 2 2 2 2 3 4 5 5 3 2 3 3 3 5 5 5 4 5 6 4
2 2 3 3 3 4 5 5 4 3 3 3 3 2 3 2 2 3 2 1 1 1 1 1 2 2 2 2 3 4 4 5 3 3 5 5 5 4 3 5 5 4 2
2 2 3 3 3 3 3 4 3 3 4 3 3 2 2 1 1 1 2 2 2 2 1 2 2 2 2 2 1 1 2 2 2 2 3 4 4 3 4 4 3 3 3
2 2 3 3 4 3 2 2 3 3 3 3 2 1 1 2 1 1 1 2 3 3 4 3 3 3 3 4 5 3 2 2 3 2 1 1 1 2 2 3 3 2 2
1 2 2 2 3 3 3 2 3 3 3 2 2 2 1 1 2 1 1 2 2 3 5 6 4 4 5 5 5 5 4 4 3 1 1 2 2 3 3 3 3 2 3
Wind_Direction
147 138 147 150 145 141 139 143 145 150 145 138 138 140 146 146 122 161 151 146 142 139 134 139 140 136 136 156 148 139 114 79 90 73 12 341 329 313 226 211 193 209 212
129 137 142 134 146 161 150 146 149 153 157 158 161 157 150 163 159 140 120 139 142 148 148 149 149 146 137 127 131 130 131 186 115 117 95 357 339 324 281 232 204 207 201
159 163 158 151 148 153 160 155 158 158 155 147 126 104 79 66 61 67 85 140 156 157 147 147 139 141 138 154 171 154 148 164 256 141 146 149 225 288 313 262 231 217 212
158 158 158 159 161 159 142 130 137 135 139 136 135 140 141 150 191 176 170 166 163 157 151 141 134 136 137 158 179 150 152 145 171 252 207 178 172 168 278 309 281 238 226
159 160 161 162 157 148 139 132 123 117 115 123 140 138 134 154 141 119 122 119 117 143 140 130 128 133 138 141 141 131 134 146 164 187 194 170 169 157 164 248 296 307 268
156 154 154 146 139 137 135 132 129 131 134 128 131 138 139 136 123 119 128 134 70 73 112 123 118 124 125 137 156 147 143 157 163 172 172 174 181 186 173 203 238 263 271
157 152 151 148 148 149 149 147 146 146 150 142 143 149 151 150 152 153 150 146 139 157 219 130 129 130 131 143 129 121 117 142 155 180 195 191 211 185 169 178 216 250 278
161 164 162 160 162 163 161 158 157 155 159 156 164 162 153 155 166 167 157 170 184 193 185 148 149 140 125 116 117 108 124 118 139 144 152 178 244 192 176 173 170 230 307
163 172 166 165 164 164 168 167 161 161 169 169 167 168 164 162 171 178 162 167 183 176 157 144 130 133 131 129 123 107 149 130 144 147 126 146 274 252 211 177 170 167 197
147 160 162 166 169 168 165 161 161 169 172 174 178 175 174 172 174 167 169 170 176 159 144 145 141 129 133 131 118 123 151 116 119 149 131 283 277 289 247 189 179 170 170
160 160 162 161 150 146 148 152 156 161 168 175 175 155 157 169 161 169 187 181 168 157 158 165 161 154 181 149 137 171 131 116 335 329 168 252 254 286 295 222 148 162 158
166 161 155 148 143 146 150 149 158 158 159 155 150 155 151 146 145 168 184 172 172 168 163 156 144 132 118 140 156 201 166 184 226 258 256 274 254 274 260 170 151 176 176
153 148 144 147 148 148 149 147 147 152 150 141 135 130 133 144 166 178 176 166 168 169 163 155 159 169 175 192 221 208 200 205 224 222 208 233 178 236 256 164 179 202 169
153 147 146 152 158 156 154 150 148 153 152 147 148 146 153 165 179 164 161 187 184 172 160 167 181 188 192 203 221 218 206 226 255 259 222 200 186 202 209 192 220 201 192
149 152 157 160 162 156 154 157 158 163 161 154 157 172 178 171 153 140 159 176 181 179 172 175 186 190 195 214 205 219 206 209 253 280 254 218 194 186 186 183 200 182 189
162 159 158 157 160 162 164 162 159 163 162 168 174 176 168 159 159 171 167 165 187 183 170 187 190 198 220 217 195 186 195 217 223 256 281 286 275 255 241 239 206 182 184
156 157 162 166 168 169 166 166 161 160 160 164 174 174 169 166 182 191 169 189 203 188 184 198 191 206 230 219 212 203 182 205 219 218 244 280 298 301 287 297 312 284 245
164 163 165 167 168 165 161 154 153 158 163 169 176 177 175 180 192 187 196 214 204 194 207 213 206 210 234 221 217 209 172 209 234 221 211 231 269 271 238 259 291 286 274
176 172 170 168 165 162 158 149 152 160 163 178 193 198 191 190 199 210 220 220 205 214 222 215 203 206 236 232 222 194 177 230 256 252 236 229 243 258 239 215 259 281 285
169 167 157 150 157 167 156 150 161 166 182 193 200 198 190 190 202 216 223 222 210 216 217 226 222 214 228 234 222 191 172 216 258 275 276 258 246 257 243 216 231 263 275
158 156 149 157 169 165 153 157 169 191 201 193 192 192 190 193 201 208 213 219 212 209 217 228 245 234 233 237 229 203 180 200 230 256 269 270 270 266 257 235 223 241 257
139 149 148 158 166 161 153 162 189 203 190 180 183 195 202 209 200 196 217 210 191 205 226 228 260 263 252 239 236 219 213 204 204 240 253 262 272 273 269 257 258 263 269
159 157 151 152 158 162 160 172 198 183 168 164 180 198 211 220 193 185 197 196 187 199 222 226 247 266 266 259 246 228 225 222 216 246 258 266 272 280 276 270 272 267 249
169 167 140 145 162 176 174 185 186 168 157 169 188 196 200 225 219 178 180 181 191 204 219 226 240 256 258 252 249 248 241 247 254 268 276 281 282 275 269 280 280 251 229
179 166 160 166 176 178 181 183 174 160 157 170 187 199 194 186 181 201 216 211 218 205 199 215 215 213 238 241 217 206 224 233 243 268 310 324 314 298 290 282 276 268 255
149 142 150 168 180 178 181 183 175 161 159 170 189 199 203 200 189 187 317 331 250 234 216 215 209 224 226 223 219 225 234 241 231 180 241 261 257 256 262 264 267 259 251